Weather in Zyulzya

Russia / Zabaykalsky Krai     52°31′56″N   116°12′14″E
temp.,
°C
wind,
m/s
gust,
m/s
humid.,
%
clouds,
%
prec.,
mm/h
press.,
hPa
HPBL,
m
9 march, tue
tue900:00−12nw497312 0.0 1022131
03:00−15nw34746 0.0 102736
06:00−18nw23780 0.0 102920
09:00−18nw12810 0.0 103122
12:00−12s227448 0.0 1028235
15:00−8sse367742 0.0 1024457
18:00−9s498113 0.0 1022351
21:00−13s228039 0.0 102221
10 march, wed
wed1000:00−12s2285100 0.0 102021
03:00−12wsw1188100 0.0 102020
06:00−15wnw119730 0.0 102120
09:00−11wnw228615 0.0 102227
12:00−3wnw59710 0.0 10221180
15:00−1nw59640 0.0 10231538
18:00−3wnw23730 0.0 102435
21:00−10wsw11770 0.0 102821
11 march, thu
thu1100:00−13sw11800 0.0 102821
03:00−14s12810 0.0 102820
06:00−15sse118411 0.0 102920
09:00−13s01867 0.0 102821
12:00−8s11830 0.0 1026236
15:00−5sse239024 0.0 1024292
18:00−4sse239281 0.0 1024224
21:00−10sse229559 0.0 102621
12 march, fri
fri1200:00−12sse22964 0.0 102721
03:00−13sse12972 0.0 102621
06:00−14sse229723 0.0 102621
09:00−11s129411 0.0 102530
12:00−5s36880 0.0 1021332
15:00−2s57870 0.0 1017417
18:00−2ssw4128963 0.0 1015516
21:00−4ssw4148881 0.0 1015321
13 march, sat
sat1300:00−4ssw3785100 0.0 1014129
03:00−7sw2285100 0.0 101421
06:00−9wnw118672 0.0 101521
09:00−8s118584 0.0 101521
12:00−3sse348497 0.0 1010265
15:00−1s369560 0.0 1006389
18:00−1s31089100 0.0 1004362
21:00−4s3488100 0.0 100352